Location: Cicognara
(44.9500°N, 10.4667°E)
Time: 07:09:53
(UTC+00:00)

ARIANE 5 R/B - Pass Details

Date: 20 June 2021
Orbit: 620 x 656 km, 98.1° (Epoch: 16 July)

Event Time Altitude Azimuth Distance (km) Brightness Sun altitude
Exits shadow 20:01:01 10° 135° (SE) 2,033 4.5 -8.0°
Maximum altitude 20:05:05 37° 69° (ENE) 1,019 3.5 -8.5°
Drops below altitude 10° 20:09:13 10° 3° (N) 2,068 5.9 -9.0°
Sets 20:11:34 0° 355° (N) 2,987 7.0 -9.3°
